sat.trackr.live / text

‹ back to catalog

STARLINK-3235

NORAD 50200 · 2021-125AW

PAYLOAD ACTIVE UNKNOWN

§ Identity

Operator
Country
US
Launch date
2021-12-18
Launch site
AFWTR
Launch vehicle
Mass (kg)
RCS (m²)

Purposes: comms

External: N2YO · Heavens-Above · Gunter

§ Orbital elements

Epoch: 2026-05-24T18:59:36.916800Z

Period
95.44 min
Inclination
53.2155°
Eccentricity
0.0001251
Mean motion
15.08839931 rev/d
Perigee alt
538.9 km
Apogee alt
540.6 km
Semi-major
6,917.9 km
B*
3.1376e-5
RAAN
257.4474°
Arg perigee
84.9864°
Mean anomaly
275.1271°
Rev number
24,823

§ Raw data

STARLINK-32351 50200U 21125AW  26144.79139950  .00000212  00000+0  31376-4 0  99962 50200  53.2155 257.4474 0001251  84.9864 275.1271 15.08839931248232

JSON: /api/v1/satellites/50200 · /tle

For live sub-satellite position, see the globe view (requires WebGL).

§ Visibility from observer

Set your observer location to see the next 7 days of passes ≥ 10°. The values pass through the URL so the page stays shareable.

No JS? Fill the form by hand. The geolocation button needs JavaScript.